Terminal Aerodrome Forecast
Issued by NWS Wichita, KS

Home | Current Version | Previous Version | Graphics & Text | Print | Product List | Glossary On
Versions: 1 2 3 4 5 6 7 8 9 10 11 12 13 14 15 16
000
FTUS43 KICT 261700
TAFICT
TAF
KICT 261735Z 2618/2718 15011KT P6SM SCT090
     FM270100 16008KT P6SM SCT100 BKN250=

USA.gov is the U.S. government's official web portal to all federal, state and local government web resources and services.